Regional Weather Roundup
Issued by NWS

Home | Current Version | Previous Version | Graphics & Text | Print | Product List | Glossary On
Versions: 1 2 3 4 5 6 7 8 9 10 11 12 13 14 15 16 17 18 19 20 21 22 23 24 25 26 27 28 29 30 31 32 33 34 35 36 37 38 39 40 41 42 43 44 45 46 47 48 49 50
000
ASUS43 KMPX 200310
RWRMN
WEATHER ROUNDUP FOR MINNESOTA
NATIONAL WEATHER SERVICE TWIN CITIES/CHANHASSEN MN
1000 PM CDT SAT AUG 19 2017


NOTE: "FAIR" INDICATES FEW OR NO CLOUDS BELOW 12,000 FEET WITH NO
SIGNIFICANT WEATHER AND/OR OBSTRUCTIONS TO VISIBILITY. N/A MEANS
CURRENT SKY AND/OR WEATHER CONDITIONS ARE NOT AVAILABLE.

MNZ060>063-068>070-200400-
   Twin Cities Metro

CITY           SKY/WX    TMP DP  RH WIND       PRES   REMARKS
TWIN CITIES    PTCLDY    71  63  75 SE7       29.89R
ST PAUL        CLEAR     67  66  97 SE3       29.89R
CRYSTAL        CLEAR     69  61  75 S5        29.87S
BLAINE         CLEAR     68  63  83 CALM      29.89R
LAKEVILLE      CLEAR     61  61 100 CALM      29.90S
EDEN PRAIRIE   CLEAR     69  64  84 S7        29.88R
SOUTH ST PAUL  CLEAR     71  64  78 CALM      29.89S
LAKE ELMO      FAIR      64  63  94 CALM      29.91R
$$
MNZ001>005-007-008-013>017-022>024-027-028-200400-
   Northwest Minnesota

CITY           SKY/WX    TMP DP  RH WIND       PRES   REMARKS
BEMIDJI        CLEAR     66  59  77 S6        29.82F
HALLOCK        CLEAR     73  61  64 S17       29.70S
ROSEAU         CLEAR     68  61  77 S9        29.75S
WARROAD        CLEAR     68  63  83 S6        29.76S
THIEF RVR FALL CLEAR     69  61  75 S10       29.78S
CROOKSTON      CLOUDY    73  61  64 S15       29.75F
FOSSTON        PTCLDY    63  61  94 S7        29.81F
DETROIT LAKES  CLEAR     64  61  88 SE7       29.85R
MOORHEAD       CLOUDY    70  63  78 SE9       29.79S
PARK RAPIDS    PTCLDY    68  60  75 SE8       29.85R
MAHNOMEN       FAIR      64  61  88 S6        29.81S
$$
MNZ006-009>011-018-025>026-200400-
   North Central Minnesota

CITY           SKY/WX    TMP DP  RH WIND       PRES   REMARKS
BAUDETTE       CLEAR     68  58  70 S7        29.78R
FLAG ISLAND    CLEAR     73  61  64 S5        29.73S
INTL FALLS     CLEAR     66  58  75 S3        29.81R
WASKISH        CLEAR     66  61  82 CALM      29.81S
BIG FORK       CLEAR     63  59  88 CALM      29.85S
LONGVILLE      CLOUDY    64  61  88 S6        29.86R
GRAND RAPIDS   CLEAR     62  60  93 S3        29.89R
CRANE LAKE     CLEAR     57  55  94 CALM      29.85R
ORR            CLEAR     64  57  77 S5        29.83R
COOK           CLEAR     64  59  82 CALM      29.87R
WALKER         FAIR      67  60  75 S6        29.85S
$$
MNZ012-019>021-037-200400-
   Northeast Minnesota

CITY           SKY/WX    TMP DP  RH WIND       PRES   REMARKS
DULUTH         PTCLDY    66  62  87 SW7       29.89R
ELY            CLEAR     63  57  82 CALM      29.87R
HIBBING        CLEAR     59  57  93 CALM      29.87R
EVELETH        CLEAR     60  56  88 CALM      29.89R
DULUTH HARBOR  CLEAR     70  64  83 SW8       29.87R
TWO HARBORS    CLEAR     68  63  83 CALM      29.86R
SILVER BAY     CLEAR     63  61  94 CALM      29.86R
GRAND MARAIS     N/A     63  60  90 CALM      29.83R
G MARAIS ARPRT CLEAR     61  54  77 W3        29.89R
$$
MNZ029>031-032-039>041-046>048-054>057-064-200400-
   West Central Minnesota

CITY           SKY/WX    TMP DP  RH WIND       PRES   REMARKS
FERGUS FALLS   PTCLDY    68  63  83 S7        29.83R
WHEATON        CLEAR     66  63  88 SE7       29.84R
MORRIS         CLEAR     66  64  94 SE7       29.83R
ALEXANDRIA     CLEAR     66  62  87 SE8       29.87R
ELBOW LAKE     FAIR      66  63  90 E8        29.85R
WADENA         CLEAR     64  61  88 SE3       29.85R
GLENWOOD       CLEAR     64  63  94 SE8       29.87R
APPLETON       CLEAR     70  63  78 SE6       29.83S
BENSON         CLEAR     68  64  88 S7        29.86R
ORTONVILLE     CLEAR     66  64  94 MISG      29.83R
MADISON        CLEAR     68  68 100 SE5       29.84R
WILLMAR        FAIR      68  64  88 SE6       29.87S
$$
MNZ033>034-036-042>043-049>051-058-059-200400-
   Central Minnesota

CITY           SKY/WX    TMP DP  RH WIND       PRES   REMARKS
ST CLOUD       CLEAR     64  63  96 SE6       29.87S
SAUK CENTRE    FAIR      65  62  91 SE5       29.87R
PAYNESVILLE    CLEAR     69  65  85 SE7       29.88R
AITKIN         CLEAR     61  57  88 CALM      29.87R
PINE RIVER     CLEAR     59  55  88 CALM      29.90R
BRAINERD       CLEAR     64  60  87 S3        29.87R
STAPLES        CLEAR     66  59  77 CALM      29.86S
LONG PRAIRIE   FAIR      63  61  94 E6        29.88R
LITTLE FALLS     N/A    N/A N/A N/A SE3         N/A
LITCHFIELD     CLEAR     68  64  88 CALM      29.89R
BUFFALO        CLEAR     67  62  83 CALM      29.89S
MAPLE LAKE     CLEAR     67  65  93 CALM      29.89R
HUTCHINSON     CLEAR     67  65  93 CALM      29.90R
$$
MNZ037-044-045-052-053-200400-
   East Central Minnesota

CITY           SKY/WX    TMP DP  RH WIND       PRES   REMARKS
PRINCETON      CLEAR     64  61  88 SE3       29.88S
MORA           CLEAR     59  55  88 CALM      29.90S
CAMBRIDGE      CLEAR     68  61  77 CALM      29.89S
RUSH CITY      PTCLDY    61  59  93 CALM      29.89S
MOOSE LAKE       N/A     59  59 100 CALM      29.87S FOG
HINCKLEY       FAIR      61  61 100 CALM      29.89S
CLOQUET        CLEAR     66  57  72 SW3       29.89S
MCGREGOR       CLEAR     63  59  88 S3        29.88S
$$
MNZ071>073-080-081-089-090-097-098-200400-
   Southwest Minnesota

CITY           SKY/WX    TMP DP  RH WIND       PRES   REMARKS
MONTEVIDEO     CLEAR     68  64  88 S6        29.86R
GRANITE FALLS  CLEAR     68  65  91 SE6       29.87R
CANBY          CLEAR     71  64  77 CALM      29.86R
MARSHALL       CLEAR     70  64  81 S7        29.87R
REDWOOD FALLS  CLEAR     68  64  87 SE7       29.86R
OLIVIA         CLEAR     68  63  83 SE7       29.86S
PIPESTONE      CLEAR     70  64  83 S7        29.90R
WINDOM         CLEAR     70  64  83 SE7       29.90R
WORTHINGTON    CLEAR     69  64  84 S8        29.91R
JACKSON        PTCLDY    70  64  83 CALM      29.91S
TRACY          PTCLDY    72  66  83 S9        29.88R
SLAYTON        CLEAR     65  61  85 SE5       29.91R
$$
MNZ065>067-074>077-082>085-091>093-200400-
   South Central Minnesota

CITY           SKY/WX    TMP DP  RH WIND       PRES   REMARKS
MANKATO        CLEAR     67  64  90 SE7       29.90R
NEW ULM        CLEAR     70  64  83 SE7       29.88S
ST JAMES       PTCLDY    66  64  94 SE5       29.90R
FAIRMONT       MOCLDY    70  66  87 S8        29.91R
GLENCOE        CLEAR     68  67  94 SE3       29.89R
FARIBAULT      CLEAR     66  63  88 SE3       29.91S
OWATONNA       CLEAR     66  63  88 SE5       29.92S
WASECA         CLEAR     64  61  88 SE6       29.93R
ALBERT LEA     CLEAR     70  64  83 S6        29.93R
$$
MNZ078>079-086>088-094>096-200400-
   Southeast Minnesota

CITY           SKY/WX    TMP DP  RH WIND       PRES   REMARKS
ROCHESTER      CLEAR     63  62  97 SE6       29.95R
RED WING       CLEAR     64  61  88 CALM      29.90S
DODGE CENTER   CLEAR     63  61  94 S5        29.94S
WINONA         CLEAR     66  63  88 CALM      29.94R
AUSTIN         CLEAR     66  63  88 S5        29.94R
PRESTON        CLEAR     66  60  81 S3        29.96R
$$
ABBREVIATIONS USED IN REMARKS
   TC - TEMPERATURES IN CELSIUS
  WCI - WIND CHILL INDEX
   HX - HEAT INDEX
  VSB - VISIBILITY
$$




USA.gov is the U.S. government's official web portal to all federal, state and local government web resources and services.